Voltar ao catálogo

AMC-3

GE-3

AtivoComunicaçõesGEO
NORAD 24936·PAYLOAD·🇱🇺 Luxembourg

Lançado Sep 4, 1997 de Cape Canaveral Space Force Station

Loading…

TLE

AtualizadoSource: Space-Track

Época: Sep 14, 2026, 13:13 UTC

1 24936U 97050A   26257.55099998 -.00000035  00000-0  00000-0 0  9990
2 24936   8.3799  62.9659 0003969 105.9331 223.9902  0.99065255 53318

Acompanhe AMC-3 em tempo real com AllMySat

Download on the App Store